DW5256 Weather Reports


time (UTC)temp
F
wind
direction
speed
knots
gust
knots
rain 1hr
in
rain 24hr
in
rain mn
in
humidity
%
barometer
mb
20260904162026 70 314 0.0 0.0 0.00 0.00 0.00 72 1012.2
20260904160515 68 321 0.0 0.0 0.00 0.00 0.00 73 1012.0
20260904155050 68 321 0.0 0.0 0.00 0.00 0.00 75 1012.0
20260904153524 67 321 0.0 0.0 0.00 0.00 0.00 76 1012.0
20260904152016 66 319 0.0 0.0 0.00 0.00 0.00 77 1012.0
20260904150527 65 307 0.0 0.0 0.00 0.00 0.00 78 1011.8
20260904145018 65 291 0.0 0.0 0.00 0.00 0.00 79 1011.7
20260904143527 64 290 0.0 0.0 0.00 0.00 0.00 80 1011.7
20260904142039 64 290 0.0 0.0 0.00 0.00 0.00 80 1011.6
20260904140544 64 290 0.0 0.0 0.00 0.00 0.00 80 1011.4
20260904135044 64 290 0.0 0.0 0.00 0.00 0.00 79 1011.4
20260904133521 64 290 0.0 0.0 0.00 0.00 0.00 80 1011.4
20260904132036 64 290 0.0 0.0 0.00 0.00 0.00 80 1011.3
20260904130536 64 290 0.0 0.0 0.00 0.00 0.00 80 1010.9
20260904125030 64 290 0.0 0.0 0.00 0.00 0.00 80 1010.9
20260904123529 64 290 0.0 0.0 0.00 0.00 0.00 80 1010.9
20260904122027 64 290 0.0 0.0 0.00 0.00 0.00 80 1010.9
20260904120525 64 290 0.0 0.0 0.00 0.00 0.00 80 1010.9
20260904115021 64 290 0.0 0.0 0.00 0.00 0.00 80 1011.0
20260904113517 64 290 0.0 0.0 0.00 0.00 0.00 80 1011.0
20260904112015 64 290 0.0 0.0 0.00 0.00 0.00 80 1011.0
20260904110534 64 290 0.0 0.0 0.00 0.00 0.00 81 1011.1
20260904105014 65 290 0.0 0.0 0.00 0.00 0.00 81 1011.1
20260904103516 65 290 0.0 0.0 0.00 0.00 0.00 81 1010.9
20260904102034 64 290 0.0 0.0 0.00 0.00 0.00 81 1010.9
20260904100534 64 290 0.0 0.0 0.00 0.00 0.00 82 1010.8
20260904095030 64 290 0.0 0.0 0.00 0.00 0.00 82 1010.8
20260904093529 64 290 0.0 0.0 0.00 0.00 0.00 82 1010.9
20260904092024 64 290 0.0 0.0 0.00 0.00 0.00 82 1010.8
20260904090523 64 290 0.0 0.0 0.00 0.00 0.00 82 1010.8
20260904085027 64 290 0.0 0.0 0.00 0.00 0.00 83 1010.8
20260904083542 64 290 0.0 0.0 0.00 0.00 0.00 83 1011.0
20260904082020 64 290 0.0 0.0 0.00 0.00 0.00 83 1011.0
20260904080531 64 290 0.0 0.0 0.00 0.00 0.00 83 1011.2
20260904075028 63 290 0.0 0.0 0.00 0.00 0.00 83 1011.2
20260904073526 64 290 0.0 0.0 0.00 0.00 0.00 82 1011.3
20260904072021 64 290 0.0 0.0 0.00 0.00 0.00 82 1011.3
20260904070517 64 290 0.0 0.0 0.00 0.00 0.00 82 1011.3
20260904065025 64 290 0.0 0.0 0.00 0.00 0.00 81 1011.3
20260904063526 64 290 0.0 0.0 0.00 0.00 0.00 81 1011.3
20260904062022 65 290 0.0 0.0 0.00 0.00 0.00 81 1011.2
20260904060520 65 290 0.0 0.0 0.00 0.00 0.00 80 1011.2
20260904055018 65 290 0.0 0.0 0.00 0.00 0.00 80 1011.1
20260904053516 65 290 0.0 0.0 0.00 0.00 0.00 79 1011.0
20260904052034 65 290 0.0 0.0 0.00 0.00 0.00 79 1011.0
20260904050542 66 290 0.0 0.0 0.00 0.00 0.00 79 1011.1
20260904045019 66 290 0.0 0.0 0.00 0.00 0.00 78 1010.9
20260904043521 66 290 0.0 0.0 0.00 0.00 0.00 78 1011.0
20260904042037 66 290 0.0 0.0 0.00 0.00 0.00 78 1011.1
20260904040516 66 290 0.0 0.0 0.00 0.00 0.00 77 1011.0
20260904035015 67 290 0.0 0.0 0.00 0.00 0.00 77 1011.0
20260904033541 67 287 0.0 0.0 0.00 0.00 0.00 76 1011.0
20260904032016 67 287 0.0 0.0 0.00 0.00 0.00 76 1010.7
20260904030521 68 287 0.0 0.0 0.00 0.00 0.00 75 1010.6
20260904025017 68 284 0.0 0.0 0.00 0.00 0.00 74 1010.6
20260904023516 69 278 0.0 0.9 0.00 0.00 0.00 74 1010.5
20260904022014 69 284 0.0 1.7 0.00 0.00 0.00 73 1010.3
20260904020516 71 277 0.0 1.7 0.00 0.00 0.00 71 1010.4
20260904015034 71 277 0.0 1.7 0.00 0.00 0.00 71 1010.4
20260904013534 72 281 0.0 3.5 0.00 0.00 0.00 69 1010.5
20260904012031 72 248 0.0 0.0 0.00 0.00 0.00 69 1010.5
20260904010532 73 265 0.0 6.1 0.00 0.00 0.00 67 1010.6
20260904005031 73 269 0.9 6.1 0.00 0.00 0.00 66 1010.7
20260904003530 74 253 0.0 5.2 0.00 0.00 0.00 64 1010.8
20260904002027 73 309 0.0 10.4 0.00 0.00 0.00 66 1010.6
20260904000528 74 225 0.9 8.7 0.00 0.00 0.00 66 1010.5
20260903235052 75 246 1.7 10.4 0.00 0.00 0.00 64 1010.5
20260903233530 76 292 0.0 10.4 0.00 0.00 0.00 62 1010.6
20260903232024 76 281 2.6 8.7 0.00 0.00 0.00 61 1010.8
20260903230551 77 259 0.9 7.0 0.00 0.00 0.00 61 1010.8
20260903225025 77 264 0.0 10.4 0.00 0.00 0.00 61 1010.9
20260903223521 77 300 1.7 8.7 0.00 0.00 0.00 61 1011.0
20260903222019 79 290 3.5 8.7 0.00 0.00 0.00 58 1011.2
20260903220516 80 267 1.7 8.7 0.00 0.00 0.00 57 1011.2
20260903215030 79 259 0.9 7.0 0.00 0.00 0.00 52 1011.3
20260903213548 79 264 2.6 8.7 0.00 0.00 0.00 52 1011.4
20260903212050 79 260 0.9 9.6 0.00 0.00 0.00 56 1011.5
20260903210529 80 229 2.6 10.4 0.00 0.00 0.00 58 1011.5
20260903205023 79 259 1.7 8.7 0.00 0.00 0.00 61 1011.6
20260903203538 79 272 0.9 7.8 0.00 0.00 0.00 57 1011.4
20260903202033 80 241 0.9 9.6 0.00 0.00 0.00 57 1011.6
20260903200535 80 230 0.0 7.8 0.00 0.00 0.00 57 1011.7
20260903195031 78 273 6.1 10.4 0.00 0.00 0.00 60 1011.8
20260903193531 80 232 0.9 10.4 0.00 0.00 0.00 59 1011.9
20260903192026 79 257 0.9 7.0 0.00 0.00 0.00 60 1012.1
20260903190522 81 234 0.9 4.3 0.00 0.00 0.00 56 1012.2
20260903185131 80 230 0.0 6.1 0.00 0.00 0.00 54 1012.3
20260903183524 79 267 0.0 7.0 0.00 0.00 0.00 51 1012.7
20260903182033 78 278 0.0 7.0 0.00 0.00 0.00 49 1012.8
20260903180523 78 286 0.0 0.0 0.00 0.00 0.00 51 1013.0
20260903175030 77 251 0.0 0.0 0.00 0.00 0.00 49 1013.0
20260903173523 76 325 0.0 0.0 0.00 0.00 0.00 53 1013.1
20260903172051 74 327 0.0 0.0 0.00 0.00 0.00 59 1013.1
20260903170521 72 327 0.0 0.0 0.00 0.00 0.00 62 1013.1
20260903165029 71 326 0.0 0.0 0.00 0.00 0.00 64 1013.1
20260903163518 70 327 0.0 0.0 0.00 0.00 0.00 67 1013.1